Find Gao Fen 5-02

NORAD ID: 49122 Int'l Des: 2021-079 Owner: GWHYZ Country: CN operational
LEOCIRCULARRETROGRADESSO

当前视图

正在加载3D地球...

关于 Gao Fen 5-02

正在加载描述...

即将过境

Passes for default location (London). Set your location on the main map for personalized predictions.

高度历史

Loading altitude history...

两行轨道根数

1 49122U 21079A 26151.16911668 .00000327 00000-0 81680-4 0 9999
2 49122 98.2614 225.5990 0002162 65.5737 294.5687 14.57683844251601
Epoch: May 31, 2026 • Age: 12 hours

当前状态

高度 711.9 km
速度 7.51 km/s
星下点 71.82°N, 58.12°W
发射日期 Sep 7, 2021
运行时间 4.7 years
类型 other

技术详情

分类 Payload
质量 2700.00 kg
干质量 2500.00 kg
总质量 2700.00 kg
长度 2.00 m
直径 2.00 m
跨度 8.00 m
形状 Box + 3 Pan
制造商 SAST
平台类型 SAST-5000B
阶段状态 In Orbit
所有者/国家 GWHYZ/CN

Most Searched